Powrót do katalogu

STARLINK-37959

AktywnyŁącznośćSSO
NORAD 69696·PAYLOAD·🇺🇸 United States

Wystrzelony Jun 25, 2026 z Vandenberg Space Force Base

Loading…

Następne Przeloty (najbliższe 24 godziny)

TLE

ŚwieżeSource: CelesTrak SupGP

Epoka: Sep 15, 2026, 04:14 UTC

1 69696C 26145V   26258.17687500 -.00046721  00000+0 -14501-2 0  2583
2 69696  97.2850 104.9683 0001861  99.5516 152.5694 15.33468310    18

Śledź STARLINK-37959 w czasie rzeczywistym z AllMySat

Download on the App Store